Погода в Моромбе

Мадагаскар     21°44′36″S   43°21′37″E
темп.,
°C
ветер,
м/с
пор.,
м/с
влажн.,
%
обл.,
%
осадки,
мм/ч
давл.,
гПа
погр.,
м
17 августа, ср
ср1700:00+22ю89640 0.0 1018470
03:00+21ю88610 0.0 1017409
06:00+21ю67640 0.0 1018419
09:00+20ю33610 0.0 1019265
12:00+21зюз44630 0.0 1018266
15:00+23юз76650 0.0 1016459
18:00+23ююз76640 0.0 1016530
21:00+23ююз76630 0.0 1017541
18 августа, чт
чт1800:00+22ю66650 0.0 1016501
03:00+21ююв44700 0.0 1015411
06:00+20юв32740 0.0 1016302
09:00+20св11700 0.0 1018183
12:00+22ссз44700 0.0 1016277
15:00+23сз55670 0.0 1015369
18:00+24зсз44640 0.0 1015369
21:00+24зсз44650 0.0 1016345
19 августа, пт
пт1900:00+24зюз33665 0.0 1015336
03:00+23всв227073 0.0 1015200
06:00+21св558060 0.0 1016227
09:00+23ссв677148 0.0 1017340
12:00+24с787662 0.0 1016357
15:00+25с78779 0.0 1014383
18:00+25ссз57825 0.0 1014384
21:00+25зсз57830 0.0 1016346
20 августа, сб
сб2000:00+25сз34810 0.0 1015337
03:00+24св33831 0.0 1015356
06:00+22всв669421 0.0 1016250
09:00+23св8108719 0.0 1017542
12:00+25с911844 0.0 1016780
15:00+25ссз79810 0.4 1016740
18:00+25сз57840 0.2 1017676
21:00+25зсз45830 0.2 1018582
21 августа, вс
вс2100:00+25з45820 0.0 1018569
03:00+24юз67842 0.1 1018653
06:00+23ю9108430 0.8 1020711
09:00+23ююв10117759 0.9 1022722
12:00+24ююз99700 0.0 1020472
15:00+24ююз1414750 0.0 1018429
18:00+24ю1415725 0.0 1019630
21:00+23ю1416710 0.0 1020711